W8BUG Weather Reports


time (UTC)temp
F
wind
direction
speed
knots
gust
knots
rain 1hr
in
rain 24hr
in
rain mn
in
humidity
%
barometer
mb
20260505124926 0 64 0.0 0.9 0.00 0.00 0.00 1018.9
20260505124423 0 64 0.0 0.0 0.00 0.00 0.00 1018.8
20260505123920 0 65 0.0 0.9 0.00 0.00 0.00 1018.8
20260505123416 0 64 0.0 0.0 0.00 0.00 0.00 1018.8
20260505122912 0 65 0.0 0.9 0.00 0.00 0.00 1018.5
20260505122410 0 67 0.0 0.9 0.00 0.00 0.00 1018.4
20260505121906 0 65 0.0 0.9 0.00 0.00 0.00 1018.2
20260505121403 0 64 0.9 0.9 0.00 0.00 0.00 1018.3
20260505120859 0 64 0.0 0.9 0.00 0.00 0.00 1018.4
20260505120355 0 64 0.0 0.9 0.00 0.00 0.00 1018.3
20260505115854 0 65 0.0 0.0 0.00 0.00 0.00 1018.2
20260505115351 0 65 0.0 0.0 0.00 0.00 0.00 1018.2
20260505114849 0 64 0.0 0.9 0.00 0.00 0.00 1018.3
20260505114346 0 64 0.0 0.0 0.00 0.00 0.00 1018.3
20260505113842 0 64 0.0 0.0 0.00 0.00 0.00 1018.1
20260505113339 0 64 0.0 0.0 0.00 0.00 0.00 1018.0
20260505112834 0 64 0.0 0.0 0.00 0.00 0.00 1018.2
20260505112332 0 64 0.0 0.0 0.00 0.00 0.00 1018.0
20260505111827 0 64 0.0 0.0 0.00 0.00 0.00 1018.0
20260505111323 0 64 0.0 0.9 0.00 0.00 0.00 1018.1
20260505110819 0 64 0.0 0.9 0.00 0.00 0.00 1017.8
20260505110317 0 64 0.0 1.7 0.00 0.00 0.00 1017.7
20260505101751 0 64 0.0 0.0 0.00 0.00 0.00 1017.7
20260505101247 0 64 0.0 0.0 0.00 0.00 0.00 1017.6
20260505100743 0 64 0.0 0.0 0.00 0.00 0.00 1017.7
20260505100240 0 67 0.9 0.9 0.00 0.00 0.00 1017.7
20260505095736 0 66 0.0 0.0 0.00 0.00 0.00 1017.7
20260505095234 0 65 0.0 0.0 0.00 0.00 0.00 1017.7
20260505094729 0 64 0.0 0.0 0.00 0.00 0.00 1017.7
20260505094226 0 64 0.0 0.0 0.00 0.00 0.00 1017.6
20260505093722 0 64 0.0 0.9 0.00 0.00 0.00 1017.7
20260505093220 0 64 0.0 0.9 0.00 0.00 0.00 1017.8
20260505092716 0 64 0.0 0.9 0.00 0.00 0.00 1017.8
20260505092215 0 64 0.0 0.9 0.00 0.00 0.00 1017.8
20260505091712 0 64 0.0 0.9 0.00 0.00 0.00 1017.7
20260505091210 0 65 0.9 0.9 0.00 0.00 0.00 1017.7
20260505090707 0 64 0.0 0.9 0.00 0.00 0.00 1017.7
20260505090205 0 64 0.0 0.9 0.00 0.00 0.00 1017.7
20260505085703 0 64 0.0 0.9 0.00 0.00 0.00 1017.6
20260505085201 0 65 0.0 0.9 0.00 0.00 0.00 1017.4
20260505084658 0 64 0.0 1.7 0.00 0.00 0.00 1017.4
20260505084156 0 64 0.0 0.0 0.00 0.00 0.00 1017.4
20260505083653 0 65 0.0 0.9 0.00 0.00 0.00 1017.2
20260505083150 0 66 0.9 0.9 0.00 0.00 0.00 1017.3
20260505082646 0 66 0.9 1.7 0.00 0.00 0.00 1017.2
20260505082143 0 68 0.9 1.7 0.00 0.00 0.00 1017.0
20260505081639 0 68 0.9 1.7 0.00 0.00 0.00 1017.0
20260505081137 0 66 0.9 1.7 0.00 0.00 0.00 1017.0
20260505080633 0 66 0.9 1.7 0.00 0.00 0.00 1017.0
20260505080129 0 66 0.9 1.7 0.00 0.00 0.00 1017.0
20260505075626 0 72 0.9 1.7 0.00 0.00 0.00 1016.9
20260505075122 0 68 0.9 1.7 0.00 0.00 0.00 1016.9
20260505074619 0 66 1.7 1.7 0.00 0.00 0.00 1016.9
20260505074116 0 72 1.7 2.6 0.00 0.00 0.00 1016.8
20260505073614 0 69 0.9 2.6 0.00 0.00 0.00 1016.9
20260505073112 0 67 0.9 1.7 0.00 0.00 0.00 1016.9
20260505072607 0 66 0.9 1.7 0.00 0.00 0.00 1017.0
20260505072104 0 67 0.0 2.6 0.00 0.00 0.00 1016.9
20260505071559 0 75 1.7 2.6 0.00 0.00 0.00 1017.0
20260505071058 0 65 0.9 4.3 0.00 0.00 0.00 1017.2
20260505070555 0 69 0.9 1.7 0.00 0.00 0.00 1017.2
20260505070050 0 66 0.9 1.7 0.00 0.00 0.00 1017.0
20260505065546 0 68 0.9 1.7 0.00 0.00 0.00 1016.9
20260505065044 0 70 1.7 2.6 0.00 0.00 0.00 1017.0
20260505064540 0 86 2.6 4.3 0.00 0.00 0.00 1017.1
20260505064039 0 65 0.0 1.7 0.00 0.00 0.00 1017.0
20260505063536 0 65 0.0 0.9 0.00 0.00 0.00 1017.2
20260505063031 0 65 0.0 1.7 0.00 0.00 0.00 1017.0
20260505062528 0 67 0.9 0.9 0.00 0.00 0.00 1017.1
20260505062026 0 71 1.7 1.7 0.00 0.00 0.00 1017.0
20260505061523 0 66 0.0 1.7 0.00 0.00 0.00 1017.1
20260505061021 0 71 0.9 1.7 0.00 0.00 0.00 1017.1
20260505060518 0 66 0.9 1.7 0.00 0.00 0.00 1017.0
20260505060015 0 72 1.7 1.7 0.00 0.00 0.00 1017.0
20260505055510 0 67 1.7 1.7 0.00 0.00 0.00 1017.1
20260505055007 0 74 1.7 5.2 0.00 0.00 0.00 1017.0
20260505054504 0 70 0.9 4.3 0.00 0.00 0.00 1017.2
20260505054002 0 66 0.0 2.6 0.00 0.00 0.00 1017.1
20260505053459 0 71 2.6 2.6 0.00 0.00 0.00 1017.0
20260505052955 0 71 1.7 2.6 0.00 0.00 0.00 1017.1
20260505052453 0 74 2.6 6.1 0.00 0.00 0.00 1017.0
20260505051950 0 70 1.7 2.6 0.00 0.00 0.00 1017.0
20260505051447 0 69 0.9 1.7 0.00 0.00 0.00 1017.1
20260505050945 0 76 0.9 1.7 0.00 0.00 0.00 1017.0
20260505050443 0 69 1.7 1.7 0.00 0.00 0.00 1016.9
20260505041411 0 69 0.9 1.7 0.00 0.00 0.00 1016.9
20260505040908 0 72 1.7 2.6 0.00 0.00 0.00 1017.0
20260505040405 0 69 1.7 1.7 0.00 0.00 0.00 1016.8
20260505035902 0 68 1.7 1.7 0.00 0.00 0.00 1016.9
20260505035358 0 74 1.7 2.6 0.00 0.00 0.00 1017.0
20260505034855 0 72 1.7 2.6 0.00 0.00 0.00 1016.9
20260505034352 0 70 0.9 1.7 0.00 0.00 0.00 1016.9
20260505033849 0 74 1.7 1.7 0.00 0.00 0.00 1016.8
20260505033345 0 66 1.7 1.7 0.00 0.00 0.00 1016.9
20260505032844 0 66 0.9 2.6 0.00 0.00 0.00 1016.9
20260505032340 0 68 1.7 1.7 0.00 0.00 0.00 1016.8
20260505031837 0 72 1.7 1.7 0.00 0.00 0.00 1017.0
20260505031333 0 66 0.0 2.6 0.00 0.00 0.00 1016.8
20260505030831 0 73 0.9 1.7 0.00 0.00 0.00 1016.8
20260505030327 0 82 1.7 1.7 0.00 0.00 0.00 1016.9
20260505025822 0 67 1.7 4.3 0.00 0.00 0.00 1017.0
20260505025320 0 71 0.9 4.3 0.00 0.00 0.00 1017.0
20260505024818 0 70 0.9 2.6 0.00 0.00 0.00 1016.7
20260505024316 0 70 0.9 1.7 0.00 0.00 0.00 1016.9
20260505023813 0 73 0.9 2.6 0.00 0.00 0.00 1017.0
20260505023310 0 70 0.9 4.3 0.00 0.00 0.00 1017.0
20260505022807 0 69 0.9 5.2 0.00 0.00 0.00 1017.0
20260505022304 0 69 2.6 5.2 0.00 0.00 0.00 1016.8
20260505021801 0 80 0.9 2.6 0.00 0.00 0.00 1016.9
20260505021258 0 72 0.0 5.2 0.00 0.00 0.00 1016.8
20260505020753 0 65 2.6 6.1 0.00 0.00 0.00 1016.8
20260505020249 0 69 0.9 2.6 0.00 0.00 0.00 1016.9
20260505015746 0 76 1.7 1.7 0.00 0.00 0.00 1016.7
20260505015243 0 74 1.7 5.2 0.00 0.00 0.00 1016.5
20260505014740 0 65 0.9 2.6 0.00 0.00 0.00 1016.6
20260505014238 0 83 2.6 4.3 0.00 0.00 0.00 1016.8
20260505013734 0 76 1.7 5.2 0.00 0.00 0.00 1016.6
20260505013231 0 83 1.7 2.6 0.00 0.00 0.00 1016.8
20260505012729 0 67 1.7 6.1 0.00 0.00 0.00 1016.7
20260505012226 0 74 2.6 7.8 0.00 0.00 0.00 1016.7
20260505011722 0 73 1.7 6.1 0.00 0.00 0.00 1016.7
20260505011220 0 70 2.6 6.1 0.00 0.00 0.00 1016.5
20260505010715 0 66 0.0 2.6 0.00 0.00 0.00 1016.7
20260505010212 0 70 1.7 4.3 0.00 0.00 0.00 1016.4
20260505005708 0 86 1.7 2.6 0.00 0.00 0.00 1016.4
20260505005205 0 69 0.0 2.6 0.00 0.00 0.00 1016.3
20260505004702 0 68 0.9 1.7 0.00 0.00 0.00 1016.3
20260505004159 0 82 1.7 2.6 0.00 0.00 0.00 1016.3
20260505003656 0 71 1.7 7.8 0.00 0.00 0.00 1016.3
20260505003153 0 70 1.7 4.3 0.00 0.00 0.00 1016.1
20260505002650 0 64 1.7 4.3 0.00 0.00 0.00 1016.2
20260505002148 0 72 3.5 4.3 0.00 0.00 0.00 1016.2
20260505001644 0 67 0.0 2.6 0.00 0.00 0.00 1016.1
20260505001142 0 67 0.0 2.6 0.00 0.00 0.00 1016.2
20260505000639 0 66 1.7 2.6 0.00 0.00 0.00 1016.1
20260505000137 0 74 0.0 4.3 0.00 0.00 0.00 1016.0
20260504235633 0 70 0.9 4.3 0.00 0.00 0.00 1016.1
20260504235129 0 75 1.7 5.2 0.00 0.00 0.00 1016.1
20260504234626 0 72 1.7 6.1 0.00 0.00 0.00 1016.1
20260504234124 0 80 1.7 4.3 0.00 0.00 0.00 1015.9
20260504233619 0 67 0.9 6.1 0.00 0.00 0.00 1016.0
20260504233115 0 67 0.9 6.1 0.00 0.00 0.00 1016.0
20260504232614 0 67 0.9 1.7 0.00 0.00 0.00 1015.8
20260504232110 0 67 0.9 4.3 0.00 0.00 0.00 1016.0
20260504231607 0 67 0.9 5.2 0.00 0.00 0.00 1016.0
20260504231103 0 66 0.0 1.7 0.00 0.00 0.00 1016.0
20260504230559 0 73 2.6 5.2 0.00 0.00 0.00 1016.1
20260504230059 0 67 0.9 1.7 0.00 0.00 0.00 1015.9
20260504225555 0 72 0.9 4.3 0.00 0.00 0.00 1015.9
20260504225052 0 70 0.0 1.7 0.00 0.00 0.00 1016.2
20260504224549 0 72 0.9 2.6 0.00 0.00 0.00 1016.0
20260504224046 0 72 2.6 4.3 0.00 0.00 0.00 1016.1
20260504223543 0 72 0.9 5.2 0.00 0.00 0.00 1016.2
20260504223038 0 67 0.9 2.6 0.00 0.00 0.00 1016.1
20260504222536 0 68 2.6 2.6 0.00 0.00 0.00 1016.1
20260504222033 0 77 2.6 5.2 0.00 0.00 0.00 1016.1
20260504221530 0 66 0.0 2.6 0.00 0.00 0.00 1016.2
20260504221027 0 66 0.9 2.6 0.00 0.00 0.00 1016.1
20260504220524 0 78 0.9 4.3 0.00 0.00 0.00 1016.3
20260504220021 0 78 5.2 11.3 0.00 0.00 0.00 1016.1
20260504215517 0 71 1.7 7.0 0.00 0.00 0.00 1016.2
20260504215015 0 67 0.9 4.3 0.00 0.00 0.00 1016.1
20260504214510 0 68 3.5 7.0 0.00 0.00 0.00 1016.4
20260504214007 0 79 1.7 2.6 0.00 0.00 0.00 1016.2
20260504213503 0 80 4.3 6.1 0.00 0.00 0.00 1016.2
20260504213001 0 70 3.5 5.2 0.00 0.00 0.00 1016.2
20260504212456 0 76 2.6 2.6 0.00 0.00 0.00 1016.0
20260504211954 0 84 1.7 5.2 0.00 0.00 0.00 1016.2
20260504211450 0 85 2.6 5.2 0.00 0.00 0.00 1016.3
20260504210948 0 85 2.6 6.1 0.00 0.00 0.00 1016.4
20260504210444 0 79 2.6 4.3 0.00 0.00 0.00 1016.2
20260504205941 0 85 1.7 5.2 0.00 0.00 0.00 1016.3
20260504205439 0 66 0.0 1.7 0.00 0.00 0.00 1016.4
20260504204937 0 65 0.9 6.1 0.00 0.00 0.00 1016.5
20260504204435 0 73 0.9 6.1 0.00 0.00 0.00 1016.5
20260504203934 0 84 4.3 7.0 0.00 0.00 0.00 1016.7
20260504203431 0 71 0.9 2.6 0.00 0.00 0.00 1016.7
20260504202927 0 65 0.9 2.6 0.00 0.00 0.00 1016.7
20260504202424 0 69 0.9 6.1 0.00 0.00 0.00 1016.7
20260504201921 0 67 1.7 4.3 0.00 0.00 0.00 1016.8
20260504201418 0 65 0.0 4.3 0.00 0.00 0.00 1016.9
20260504200915 0 71 0.9 5.2 0.00 0.00 0.00 1017.0
20260504200412 0 69 0.9 1.7 0.00 0.00 0.00 1017.0
20260504195909 0 69 1.7 4.3 0.00 0.00 0.00 1017.1
20260504195404 0 74 0.0 1.7 0.00 0.00 0.00 1017.2
20260504194901 0 85 2.6 4.3 0.00 0.00 0.00 1017.3
20260504194357 0 79 1.7 4.3 0.00 0.00 0.00 1017.3
20260504193853 0 71 1.7 2.6 0.00 0.00 0.00 1017.3
20260504193350 0 65 0.0 2.6 0.00 0.00 0.00 1017.3
20260504192849 0 65 0.9 5.2 0.00 0.00 0.00 1017.6
20260504192347 0 89 0.9 6.1 0.00 0.00 0.00 1017.7
20260504191845 0 76 1.7 2.6 0.00 0.00 0.00 1017.7
20260504191343 0 73 1.7 1.7 0.00 0.00 0.00 1017.9
20260504190838 0 68 0.9 2.6 0.00 0.00 0.00 1017.9
20260504190334 0 65 0.9 4.3 0.00 0.00 0.00 1017.9
20260504185831 0 70 2.6 2.6 0.00 0.00 0.00 1018.1
20260504185328 0 65 2.6 4.3 0.00 0.00 0.00 1018.1
20260504184824 0 78 0.0 4.3 0.00 0.00 0.00 1018.1
20260504184320 0 72 0.9 2.6 0.00 0.00 0.00 1018.3
20260504183815 0 85 4.3 5.2 0.00 0.00 0.00 1018.3
20260504183313 0 48 1.7 2.6 0.00 0.00 0.00 1018.3
20260504182811 0 81 1.7 5.2 0.00 0.00 0.00 1018.6
20260504182308 0 82 2.6 4.3 0.00 0.00 0.00 1018.6
20260504181805 0 68 0.0 4.3 0.00 0.00 0.00 1018.6
20260504181302 0 64 0.9 1.7 0.00 0.00 0.00 1018.5
20260504180801 0 67 0.9 2.6 0.00 0.00 0.00 1018.6
20260504180259 0 82 3.5 5.2 0.00 0.00 0.00 1018.7
20260504175757 0 80 1.7 4.3 0.00 0.00 0.00 1018.7
20260504175253 0 66 1.7 4.3 0.00 0.00 0.00 1018.6
20260504174751 0 65 0.9 1.7 0.00 0.00 0.00 1018.9
20260504174249 0 69 2.6 4.3 0.00 0.00 0.00 1019.0
20260504173745 0 76 0.9 4.3 0.00 0.00 0.00 1018.9
20260504173242 0 84 2.6 4.3 0.00 0.00 0.00 1019.0
20260504172739 0 86 4.3 7.8 0.00 0.00 0.00 1019.0
20260504172236 0 85 5.2 7.0 0.00 0.00 0.00 1019.0
20260504171732 0 72 2.6 6.1 0.00 0.00 0.00 1019.2
20260504171229 0 86 1.7 6.1 0.00 0.00 0.00 1019.3
20260504170726 0 73 1.7 2.6 0.00 0.00 0.00 1019.2
20260504170223 0 78 3.5 5.2 0.00 0.00 0.00 1019.3
20260504160142 0 76 1.7 4.3 0.00 0.00 0.00 1020.3
20260504151109 0 66 1.7 5.2 0.00 0.00 0.00 1020.9
20260504150607 0 68 2.6 5.2 0.00 0.00 0.00 1020.9
20260504150104 0 71 3.5 6.1 0.00 0.00 0.00 1021.0
20260504141032 0 70 0.0 2.6 0.00 0.00 0.00 1021.6
20260504140529 0 67 0.0 1.7 0.00 0.00 0.00 1021.5